SCP
0 0 0 0 0 0 0 0 0 0 0 0 0 0 0 0 0 0 0 0 0 0 0 0 0 0 0 0 0 0 0 0 -0 0 -0 0 0 0 0 0 0 0 0 0 0 0 0 0 0 0 0 0 0 0
0 0 0 0 0 0 0 0 0 0 0 0 0 0 0 0 0 0 0 0 0 0 0 0 0 0 0 0 0 0 0 0 0 -0 0 0 0 0 0 0 0 0 0 0 0 0 0 0 0 0 0 0 0 0
0 0 0 0 0 0 0 0 0 0 0 0 0 0 0 0 0 0 0 0 0 0 0 0 0 0 0 0 0 0 0 0 0 0 0 0 0 0 0 0 0 0 0 0 0 0 0 0 0 0 0 0 0 0
0 0 0 0 0 0 0 0 0 0 0 0 0 0 0 0 0 0 0 0 0 0 0 0 0 0 0 0 0 -0 0 0 -0 0 0 -0 0 0 0 0 0 0 0 0 0 0 0 0 0 0 0 0 0 0
0 0 0 0 0 0 0 0 0 0 0 0 0 0 0 0 0 0 0 0 0 0 0 0 0 0 0 0 0 0 0 -0 0 -0 0 0 0 0 0 0 0 0 0 0 0 0 0 0 0 0 0 0 0 0
0 0 0 0 0 0 0 0 0 0 0 0 0 0 0 0 0 0 0 0 0 0 0 0 0 0 0 0 0 0 0 0 0 0 0 -0 -0 -0 0 0 0 0 0 0 0 0 0 0 0 0 0 0 0 0
0 0 0 0 0 0 0 0 0 0 0 0 0 0 0 0 0 0 0 0 0 0 0 0 0 0 0 0 0 0 0 0 0 0 0 0 -0 -0 0 0 0 0 0 0 0 0 0 0 0 0 0 0 0 0
0 0 0 0 0 0 0 0 0 0 0 0 0 0 0 0 0 0 0 0 0 0 0 0 0 0 0 0 0 0 0 0 0 0 0 0 0 -0 -0 0 0 0 0 0 -0 0 0 0 0 0 0 0 0 0
0 0 0 0 0 0 0 0 0 0 -0 -0 0 0 0 0 0 0 0 0 0 0 0 0 0 0 0 0 0 0 0 0 0 0 0 0 -0 -0 0 0 -0 0 0 0 0 0 0 -0 0 0 0 0 0 0
0 0 0 0 0 0 0 0 0 0 -0 0 0 0 0 0 0 0 0 0 0 0 0 0 0 0 0 0 0 0 0 0 0 0 0 0 0 0 -0 -0 -0 0 0 0 0 0 0 0 -0 0 0 0 0 0
0 0 0 0 0 0 0 0 0 0 0 0 0 0 0 0 0 0 0 0 0 0 0 0 0 0 0 0 0 0 0 0 0 0 0 0 0 0 -0 -0 -0 -0 0 0 0 0 0 0 0 0 0 0 0 0
0 0 0 0 0 0 0 0 -0 0 0 0 0 0 0 0 0 0 0 0 0 0 0 0 0 0 0 0 0 0 0 0 0 0 0 0 0 0 0 -0 -0 -0 -0 0 0 0 0 0 0 0 0 0 0 0
0 0 0 0 0 0 0 0 0 0 0 0 0 0 0 0 0 0 0 0 0 0 0 0 0 0 0 0 0 0 0 0 0 0 0 0 0 0 0 0 -0 0 0 -0 0 0 0 0 0 0 0 0 -0 0
0 0 0 0 0 0 0 0 0 0 0 0 0 0 0 0 0 0 0 0 0 0 0 0 0 0 0 0 0 0 0 0 0 0 0 0 0 0 0 0 0 -0 0 0 -0 0 0 0 0 0 0 0 0 0
0 0 0 0 0 0 0 0 0 0 0 0 0 0 0 0 0 0 0 0 0 0 0 0 0 0 0 0 0 0 0 0 0 0 0 0 0 0 0 0 0 0 0 0 0 -0 0 0 0 0 0 0 0 0
0 0 0 0 0 0 0 0 0 0 0 0 0 0 0 0 0 0 0 0 0 0 0 0 0 0 0 0 0 0 0 0 0 0 0 0 -0 -0 -0 0 0 0 0 0 0 0 -0 -0 0 0 0 0 0 0
0 0 0 0 0 0 0 0 0 0 0 0 0 0 0 0 0 0 0 0 0 0 0 0 0 0 0 0 0 0 0 0 0 0 0 0 0 0 -0 -0 -0 -0 -0 -0 -0 0 0 -0 -0 -0 0 0 0 0
0 0 0 0 0 0 0 0 0 0 0 0 0 0 0 0 0 0 0 0 0 0 0 0 0 0 0 0 0 0 0 0 0 0 0 0 0 0 0 -0 -0 -0 -0 -0 -0 0 0 0 0 -0 -0 -0 0 0
0 0 0 0 0 0 0 0 0 0 0 0 0 0 0 0 0 0 0 0 0 0 0 0 0 0 0 0 0 0 0 0 0 0 0 0 0 0 0 0 0 0 -0 -0 -0 -0 -0 -0 -0 -0 -0 -0 -0 0
0 0 0 0 0 0 0 0 0 0 0 0 0 0 0 0 0 0 0 0 0 0 0 0 0 0 0 0 0 0 0 0 0 0 0 0 0 0 0 0 0 0 -0 -0 -0 -0 -0 -0 -0 -0 -0 -0 -0 -0
0 0 0 0 0 0 0 0 0 0 0 0 0 0 0 0 0 0 0 0 0 0 0 0 0 0 0 0 0 0 0 0 0 0 0 0 0 0 0 0 0 0 0 -0 -0 -0 -0 -0 -0 -0 -0 -0 -0 -0
0 0 0 0 0 0 0 0 0 0 0 0 0 0 0 0 0 0 0 0 0 0 0 0 0 0 0 0 0 0 0 0 0 0 0 0 0 0 0 0 0 0 0 0 0 -0 -0 -0 -0 -0 -0 -0 -0 -0
0 0 0 0 0 0 0 0 0 0 0 0 0 0 0 0 0 0 0 0 0 0 0 0 0 0 0 0 0 0 0 0 0 0 0 0 0 0 0 0 0 0 0 0 0 0 0 -0 -0 -0 -0 -0 -0 -0
0 0 0 0 0 0 0 0 0 0 0 0 0 0 0 0 0 0 0 0 0 0 0 0 0 0 0 0 0 0 0 0 0 0 0 0 0 0 0 0 0 0 0 0 0 0 0 0 -0 -0 -0 -0 -0 -0
0 0 0 0 0 0 0 0 0 0 0 0 0 0 0 0 0 0 0 0 0 0 0 0 0 0 0 0 0 0 0 0 0 0 0 0 0 0 0 0 0 0 0 0 0 0 0 0 0 -0 -0 -0 -0 -0
0 0 0 0 0 0 0 0 0 0 0 0 0 0 0 0 0 0 0 0 0 0 0 0 0 0 0 0 0 0 0 0 0 0 0 0 0 0 0 0 0 0 0 0 0 0 0 0 0 0 0 0 -0 -0
0 0 0 0 0 0 0 0 0 0 0 0 0 0 0 0 0 0 0 0 0 0 0 0 0 0 0 0 0 0 0 0 0 0 0 0 0 0 0 0 0 0 0 0 0 0 0 0 0 0 0 0 0 0
0 0 0 0 0 0 0 0 0 0 0 0 0 0 0 0 0 0 0 0 0 0 0 0 0 0 0 0 0 0 0 0 0 0 0 0 0 0 0 0 0 0 0 0 0 0 0 0 0 0 0 0 0 0
0 0 0 0 0 0 0 0 0 0 0 0 0 0 0 0 0 0 0 0 0 -0 -0 0 0 0 0 0 0 0 0 0 0 0 0 0 0 0 0 0 0 0 0 0 0 0 0 0 0 0 0 0 0 0
0 0 0 0 0 0 0 0 0 0 0 0 0 0 0 0 0 0 0 0 0 0 0 0 0 0 0 0 0 0 0 0 0 0 0 0 0 0 0 0 0 0 0 0 0 0 0 0 0 0 0 0 0 0
0 0 0 0 0 0 0 0 0 0 0 0 0 0 0 0 0 0 0 0 0 0 0 0 0 0 0 0 0 0 0 0 0 0 0 0 0 0 0 0 0 0 0 0 0 0 0 0 0 0 0 0 0 0
0 0 0 0 0 0 0 0 0 0 0 0 0 0 0 0 0 0 0 0 0 0 0 0 0 0 0 0 0 0 0 0 0 0 0 0 0 0 0 0 0 0 0 0 0 0 0 0 0 0 0 0 0 0
0 0 0 0 0 0 0 0 0 0 0 0 0 0 0 0 0 0 0 0 0 0 0 0 0 0 0 0 0 0 0 0 0 0 0 0 0 0 0 0 0 0 0 0 0 0 0 0 0 0 0 0 0 0
Wind_Speed_500mb
55 57 57 57 60 62 62 62 61 48 57 67 68 58 37 24 16 20 26 24 24 17 46 31 20 20 31 23 6 20 17 2 6 6 5 4 4 5 3 4 4 3 4 6 5 7 8 36 8 7 12 19 27 30
56 58 58 58 58 62 63 62 63 55 52 64 66 57 37 29 18 19 24 18 17 25 40 64 49 26 30 36 34 10 10 12 8 6 3 7 4 5 7 3 6 2 4 2 4 6 15 23 7 16 16 23 30 33
56 57 58 58 59 60 65 66 64 61 49 62 63 56 37 29 23 20 20 21 26 23 31 12 10 25 22 4 11 12 6 7 7 10 6 4 4 5 6 7 4 2 3 3 6 6 21 17 17 25 29 32 36 37
54 56 57 60 59 60 63 67 69 64 48 62 61 56 36 27 24 21 22 16 12 14 9 14 34 20 13 26 21 17 35 35 22 24 8 4 4 10 4 0 4 4 5 7 5 12 19 7 31 40 45 41 47 46
55 57 58 61 61 59 63 65 68 67 51 63 62 55 37 25 24 26 27 14 10 8 8 23 32 12 22 34 35 17 8 18 7 5 4 3 5 6 4 3 5 11 9 7 5 13 15 31 38 47 44 50 52 54
57 57 59 62 62 61 61 67 65 69 59 65 63 51 36 28 23 21 8 1 13 15 9 7 16 15 29 38 21 19 10 4 4 5 5 8 7 7 5 2 6 14 19 17 14 32 39 47 42 25 48 45 50 49
58 58 59 59 57 58 62 67 67 70 67 66 61 47 32 18 16 8 7 18 21 6 6 11 12 9 25 26 12 13 9 1 1 2 4 7 6 10 4 5 16 24 29 34 32 28 25 21 35 48 47 44 44 43
58 61 59 57 53 55 60 65 70 69 65 65 53 43 18 10 12 11 10 17 16 6 5 4 9 11 18 11 9 17 10 3 7 8 8 8 13 5 3 15 30 32 35 30 19 26 32 46 49 38 42 44 45 44
59 59 59 53 50 53 58 63 70 64 66 59 44 23 8 2 2 7 21 15 9 9 4 5 5 7 16 8 8 11 8 4 10 6 5 12 7 5 11 30 36 40 27 35 33 34 34 34 41 40 40 43 42 43
56 56 57 54 49 52 55 60 64 60 65 47 19 8 2 4 20 18 3 4 7 7 8 7 5 5 6 6 7 8 8 6 5 4 9 3 4 18 32 34 45 37 35 28 30 34 34 37 42 44 41 41 40 41
53 54 57 50 47 47 53 57 53 63 59 42 20 9 13 15 8 6 5 6 5 6 10 9 9 7 3 4 3 3 3 5 2 5 6 5 8 16 41 38 31 35 35 31 31 34 35 34 41 44 47 42 42 44
48 53 56 47 46 43 49 46 54 56 49 47 33 32 16 1 4 5 4 2 7 4 5 4 2 6 4 3 3 1 1 1 2 11 4 3 10 43 42 40 44 35 34 37 32 35 33 31 33 37 43 44 39 47
44 47 49 50 42 41 41 38 49 56 54 26 4 6 5 3 2 6 7 4 4 6 7 4 7 4 4 1 0 1 1 0 10 1 1 5 23 30 33 35 42 37 35 40 44 52 43 31 31 32 39 42 41 41
46 45 48 42 38 33 28 39 49 54 28 6 4 8 7 6 9 8 7 5 7 12 12 11 3 4 2 3 2 3 1 2 3 2 2 5 19 29 28 33 36 43 47 44 42 56 49 39 41 39 39 43 41 39
42 42 42 38 25 28 38 39 44 45 11 9 7 9 12 14 12 9 15 10 12 16 10 2 3 4 1 3 1 2 3 1 4 5 4 6 25 26 25 30 41 43 42 42 42 45 52 50 48 53 50 41 37 39
38 40 37 25 36 34 38 40 45 18 9 12 14 8 11 5 10 12 16 18 9 7 3 3 2 3 3 2 3 5 3 7 4 6 13 21 26 26 27 24 31 33 38 45 46 45 39 45 54 53 52 49 35 32
33 36 35 44 46 36 36 40 19 13 12 11 14 27 20 12 15 15 19 17 10 6 4 4 5 2 5 3 4 7 8 5 10 13 18 18 25 27 25 17 24 34 40 41 49 46 46 52 52 53 55 52 41 34
33 40 42 41 41 40 30 11 10 11 14 23 11 14 29 29 26 29 36 31 15 9 9 5 10 8 7 6 5 7 23 23 25 25 20 21 19 18 10 14 21 26 33 41 46 46 40 50 56 57 53 53 54 47
33 39 40 28 30 23 10 8 11 9 19 17 23 29 30 31 35 39 37 35 31 21 7 8 8 7 8 11 13 16 22 21 17 20 21 12 5 10 14 14 18 21 28 32 35 40 33 38 45 52 58 61 47 46
35 32 33 28 23 7 9 10 11 13 11 8 15 16 16 22 28 28 26 32 33 12 13 10 13 23 18 32 37 35 30 22 16 12 12 5 5 10 11 15 17 18 20 25 28 32 33 35 39 40 51 60 55 41
42 27 25 22 17 20 12 9 14 14 14 12 13 10 11 18 23 22 28 28 18 14 9 27 39 42 44 40 34 28 31 31 24 15 11 13 10 14 9 10 15 18 21 24 27 26 31 39 42 31 35 49 51 61
34 30 29 27 12 12 18 21 17 11 11 14 11 15 13 10 11 12 12 17 14 36 43 41 48 45 46 46 39 34 35 29 21 17 15 14 15 11 7 8 13 18 19 21 26 27 27 38 36 31 25 34 47 46
28 30 19 15 14 14 14 17 13 11 8 6 4 6 6 7 7 6 7 12 15 27 31 40 49 48 45 38 29 28 32 32 27 18 12 13 13 12 9 8 12 16 16 17 21 24 30 34 31 27 31 32 28 42
21 14 11 13 24 10 9 9 14 9 8 5 5 6 5 7 3 6 7 11 23 33 35 36 35 29 26 25 28 26 35 31 26 21 17 12 8 6 7 8 10 11 16 18 19 23 27 29 29 27 29 30 32 36
11 14 13 13 16 10 10 7 8 5 8 10 6 6 4 3 3 5 6 5 12 26 35 24 23 24 25 28 29 34 37 31 23 20 14 7 3 8 12 12 8 7 10 13 17 21 23 26 28 29 28 31 35 34
15 17 18 15 9 12 11 7 10 11 7 10 10 5 2 4 5 9 3 8 14 26 32 25 21 24 29 31 26 28 35 27 22 18 15 10 6 2 7 9 6 4 10 13 17 22 26 24 21 23 24 25 29 32
14 17 17 19 10 7 8 9 5 4 7 10 5 7 5 5 9 5 5 11 21 33 39 32 22 20 19 17 19 22 27 26 17 19 14 11 7 4 7 6 7 4 2 6 14 21 25 26 22 18 19 21 23 27
21 15 16 17 17 19 6 4 6 9 9 10 7 11 12 10 5 3 3 14 27 29 30 33 23 9 3 8 18 22 26 20 24 22 20 15 10 5 4 4 3 2 4 3 12 22 27 27 25 18 14 17 20 21
16 21 23 9 11 13 19 14 11 16 13 14 8 7 8 9 12 18 28 40 48 47 49 37 25 14 11 15 17 22 26 29 30 30 27 21 16 12 8 5 8 5 4 7 13 14 16 22 27 28 22 14 14 15
20 22 13 14 14 16 30 31 19 24 27 28 25 26 33 33 32 36 44 41 43 38 31 32 27 13 12 16 19 19 24 32 35 30 24 23 21 19 15 13 11 8 4 8 10 9 16 21 24 22 20 17 11 7
14 31 16 20 22 48 49 42 46 47 37 34 32 36 40 33 27 32 31 30 26 23 14 6 10 9 9 16 23 20 24 29 31 27 21 19 20 20 18 16 14 13 11 4 0 4 10 16 21 23 21 15 9 6
22 28 21 15 15 30 32 22 24 24 25 25 34 32 26 17 14 5 13 19 16 14 13 12 12 10 19 26 22 20 18 20 19 18 18 16 13 12 12 11 12 12 9 7 3 5 10 13 14 13 9 7 9 12
18 23 29 25 14 12 21 16 9 10 17 16 19 23 19 11 7 11 11 12 11 11 5 4 10 14 15 19 24 26 25 19 12 6 10 12 12 10 14 15 14 12 8 3 5 4 4 6 7 7 10 14 14 12
Wind_Direction_500mb
342 342 342 343 344 347 349 351 348 343 346 347 348 347 342 334 313 301 298 294 273 266 285 276 278 272 288 288 289 315 323 11 299 322 280 299 273 219 209 43 1 127 185 168 212 224 168 358 9 82 352 333 337 333
337 339 340 341 341 344 345 348 348 343 342 346 345 346 338 333 311 285 294 290 287 264 273 296 300 293 274 282 268 273 280 292 327 326 308 299 339 342 332 90 349 127 16 32 289 32 341 344 23 41 357 333 338 337
335 336 339 338 340 340 342 345 346 345 338 344 343 341 332 331 329 304 295 279 285 282 310 335 15 354 8 308 276 252 250 288 322 336 313 291 338 321 21 18 346 14 344 290 316 40 326 328 42 15 359 345 340 340
328 331 335 339 337 339 338 340 343 343 340 342 341 338 326 317 323 313 305 298 288 295 300 290 327 310 343 336 288 270 264 270 284 315 303 317 319 326 21 351 327 12 297 340 297 330 333 228 356 347 345 349 344 340
321 324 326 331 335 332 336 336 338 341 340 342 338 336 324 305 308 316 309 285 291 299 285 289 316 337 323 324 330 310 305 277 281 298 286 330 283 295 347 289 24 356 3 5 336 320 293 298 318 328 334 337 338 338
312 318 321 324 329 332 333 335 332 336 335 340 335 333 319 297 287 317 308 163 339 281 297 300 311 310 353 351 14 1 9 63 156 228 290 279 279 295 301 339 61 358 325 329 303 298 292 291 304 323 328 331 335 334
307 313 319 321 324 332 334 336 335 332 335 337 333 332 322 292 255 262 282 301 325 277 281 297 294 306 345 360 14 20 14 67 153 302 265 301 296 332 289 299 355 329 315 314 315 327 308 315 313 319 325 328 333 334
308 307 314 319 321 328 331 335 337 337 337 337 332 330 326 282 244 269 260 304 300 241 239 289 286 321 354 349 350 0 342 356 32 345 333 342 303 309 270 349 329 330 325 309 316 312 299 305 311 317 320 329 333 337
307 308 311 316 320 326 327 331 335 339 339 338 333 333 320 196 222 256 281 287 236 241 259 211 274 304 339 352 344 354 358 28 355 16 4 329 354 344 318 315 315 317 311 308 317 322 316 306 307 315 320 325 330 332
301 302 309 313 316 325 324 329 331 336 341 342 346 343 243 242 300 301 244 240 219 228 230 254 229 287 327 302 37 354 13 20 356 6 311 25 298 262 296 306 307 308 321 306 309 313 315 316 315 314 316 316 316 318
298 301 304 307 317 321 322 327 331 335 344 351 332 271 254 299 286 226 222 215 196 236 215 239 226 292 286 319 354 41 20 351 346 9 347 13 335 343 345 344 352 351 337 332 320 295 294 292 300 308 308 308 310 315
299 297 299 302 311 311 322 323 333 338 338 325 301 291 310 295 206 233 223 225 223 278 235 243 233 227 235 221 187 149 95 298 59 330 296 78 312 338 348 2 18 4 9 0 337 313 310 303 303 302 301 302 300 306
302 299 300 306 313 305 309 313 328 333 331 324 293 278 276 231 247 220 210 210 245 212 237 267 324 205 193 145 222 186 173 165 312 45 41 234 293 344 355 1 7 6 357 346 353 355 346 330 316 315 305 299 295 294
302 305 306 318 316 309 308 311 324 327 326 278 227 279 207 219 235 198 194 200 231 244 282 300 250 259 209 190 176 249 76 281 92 112 238 291 330 334 349 357 353 347 348 352 359 4 0 354 339 330 317 308 297 284
300 300 305 320 313 316 315 313 319 318 252 236 195 236 226 237 257 247 219 253 259 283 284 258 157 197 132 234 179 124 190 152 227 219 221 284 328 328 333 344 348 345 344 346 351 1 9 6 2 359 352 328 302 291
302 306 311 309 312 316 315 316 318 299 230 226 230 244 225 258 251 224 226 245 266 252 249 186 174 208 189 190 221 215 196 216 228 222 264 299 311 322 329 332 350 355 356 356 356 355 350 357 5 359 354 354 336 304
296 294 302 309 318 320 317 307 295 224 231 224 238 227 228 260 258 260 240 234 221 188 222 166 231 236 121 224 221 195 216 222 246 271 305 329 323 320 324 328 349 352 359 5 2 2 5 10 6 3 3 7 352 341
295 301 299 303 317 326 310 261 232 238 246 240 232 232 229 239 248 260 256 255 237 201 175 223 141 189 210 208 227 223 234 266 290 302 309 320 331 341 6 3 358 359 3 4 8 8 6 16 14 12 8 8 14 7
294 304 308 310 307 297 284 246 233 259 245 261 257 256 258 265 263 266 265 260 253 236 198 187 230 204 207 205 230 254 257 261 283 311 322 331 1 42 44 35 13 8 8 8 11 11 1 9 12 12 13 12 360 4
280 297 309 295 260 238 264 259 234 257 260 250 256 249 247 260 275 273 265 252 239 210 198 211 224 232 221 255 270 281 260 259 267 292 315 10 332 355 1 13 16 13 10 9 12 13 7 9 11 7 14 17 11 7
317 305 315 308 261 232 252 262 247 245 269 257 260 255 259 259 259 256 254 242 201 221 235 235 241 242 252 258 273 266 251 249 259 254 268 299 310 344 342 352 7 9 4 7 7 3 4 4 4 5 8 13 24 30
290 297 296 287 244 233 251 235 237 288 264 261 270 255 256 254 256 249 230 196 237 246 241 242 247 255 256 253 267 258 252 244 248 248 271 283 292 293 297 327 359 6 8 7 3 359 7 5 3 10 4 11 13 11
277 278 276 229 226 227 251 220 225 226 241 244 250 240 233 234 225 198 240 231 248 277 277 261 258 259 260 262 262 255 237 233 237 241 249 249 277 296 292 307 338 359 5 3 1 355 354 1 6 12 14 13 10 18
255 238 230 227 206 247 234 235 212 238 237 244 230 253 229 234 270 223 236 258 285 305 293 280 261 249 249 245 260 261 230 226 236 233 240 260 291 305 325 310 313 345 359 3 7 360 354 360 6 9 15 19 19 17
222 225 217 225 218 224 217 225 212 213 239 205 228 256 232 218 243 246 244 281 346 349 344 303 263 261 261 261 267 248 223 220 227 221 235 199 244 305 322 331 312 330 4 358 14 14 8 6 8 10 17 19 20 19
223 219 210 209 207 206 210 219 208 219 214 202 225 250 206 200 237 248 223 348 355 355 346 329 304 293 280 261 245 228 210 207 204 192 182 191 204 245 347 348 10 353 0 20 20 13 10 8 13 13 24 27 26 30
223 229 215 222 226 218 251 252 265 251 229 213 201 181 169 232 243 242 186 34 17 4 357 348 325 303 283 267 213 212 207 195 199 194 197 211 233 299 350 351 339 333 5 35 15 15 8 4 9 15 14 23 29 32
221 209 200 219 204 210 229 195 212 225 228 213 177 189 185 210 246 222 200 324 334 337 342 345 344 333 228 227 208 191 180 196 214 203 203 211 226 265 327 343 352 98 159 72 4 0 3 0 358 10 19 19 26 32
217 212 213 215 207 210 212 213 231 228 228 198 211 212 216 232 289 293 300 305 305 300 293 295 314 327 278 226 206 201 205 213 207 198 208 215 219 222 214 196 175 202 298 341 357 358 7 10 10 5 5 12 22 32
225 200 206 220 220 229 232 227 245 258 257 251 260 276 273 267 272 288 296 295 299 302 289 263 276 276 263 244 233 230 223 213 210 216 213 216 224 224 211 199 200 213 227 331 347 8 7 8 6 358 353 353 354 2
208 189 215 230 246 250 254 257 258 262 257 257 257 252 259 269 279 280 278 280 280 308 324 297 253 267 273 288 282 264 233 225 219 221 225 225 211 201 197 199 209 235 264 271 70 349 350 347 344 344 348 351 2 16
200 204 215 231 248 259 251 247 240 234 240 236 243 242 245 239 233 228 322 306 303 295 273 249 218 234 265 273 250 228 219 199 178 169 167 173 201 226 227 216 209 205 202 199 221 311 330 332 331 330 354 53 66 74
220 220 226 243 249 245 240 219 222 250 237 237 235 215 202 191 117 31 51 42 34 14 349 243 218 212 195 172 165 156 152 158 161 202 217 220 230 237 224 202 190 182 182 251 292 325 11 25 28 43 86 106 108 104
Wind_Speed_850mb
55 57 57 57 60 62 62 62 61 48 57 67 68 58 37 24 16 20 26 24 24 17 46 31 20 20 31 23 6 20 17 2 6 6 5 4 4 5 3 4 4 3 4 6 5 7 8 36 8 7 12 19 27 30
56 58 58 58 58 62 63 62 63 55 52 64 66 57 37 29 18 19 24 18 17 25 40 64 49 26 30 36 34 10 10 12 8 6 3 7 4 5 7 3 6 2 4 2 4 6 15 23 7 16 16 23 30 33
56 57 58 58 59 60 65 66 64 61 49 62 63 56 37 29 23 20 20 21 26 23 31 12 10 25 22 4 11 12 6 7 7 10 6 4 4 5 6 7 4 2 3 3 6 6 21 17 17 25 29 32 36 37
54 56 57 60 59 60 63 67 69 64 48 62 61 56 36 27 24 21 22 16 12 14 9 14 34 20 13 26 21 17 35 35 22 24 8 4 4 10 4 0 4 4 5 7 5 12 19 7 31 40 45 41 47 46
55 57 58 61 61 59 63 65 68 67 51 63 62 55 37 25 24 26 27 14 10 8 8 23 32 12 22 34 35 17 8 18 7 5 4 3 5 6 4 3 5 11 9 7 5 13 15 31 38 47 44 50 52 54
57 57 59 62 62 61 61 67 65 69 59 65 63 51 36 28 23 21 8 1 13 15 9 7 16 15 29 38 21 19 10 4 4 5 5 8 7 7 5 2 6 14 19 17 14 32 39 47 42 25 48 45 50 49
58 58 59 59 57 58 62 67 67 70 67 66 61 47 32 18 16 8 7 18 21 6 6 11 12 9 25 26 12 13 9 1 1 2 4 7 6 10 4 5 16 24 29 34 32 28 25 21 35 48 47 44 44 43
58 61 59 57 53 55 60 65 70 69 65 65 53 43 18 10 12 11 10 17 16 6 5 4 9 11 18 11 9 17 10 3 7 8 8 8 13 5 3 15 30 32 35 30 19 26 32 46 49 38 42 44 45 44
59 59 59 53 50 53 58 63 70 64 66 59 44 23 8 2 2 7 21 15 9 9 4 5 5 7 16 8 8 11 8 4 10 6 5 12 7 5 11 30 36 40 27 35 33 34 34 34 41 40 40 43 42 43
56 56 57 54 49 52 55 60 64 60 65 47 19 8 2 4 20 18 3 4 7 7 8 7 5 5 6 6 7 8 8 6 5 4 9 3 4 18 32 34 45 37 35 28 30 34 34 37 42 44 41 41 40 41
53 54 57 50 47 47 53 57 53 63 59 42 20 9 13 15 8 6 5 6 5 6 10 9 9 7 3 4 3 3 3 5 2 5 6 5 8 16 41 38 31 35 35 31 31 34 35 34 41 44 47 42 42 44
48 53 56 47 46 43 49 46 54 56 49 47 33 32 16 1 4 5 4 2 7 4 5 4 2 6 4 3 3 1 1 1 2 11 4 3 10 43 42 40 44 35 34 37 32 35 33 31 33 37 43 44 39 47
44 47 49 50 42 41 41 38 49 56 54 26 4 6 5 3 2 6 7 4 4 6 7 4 7 4 4 1 0 1 1 0 10 1 1 5 23 30 33 35 42 37 35 40 44 52 43 31 31 32 39 42 41 41
46 45 48 42 38 33 28 39 49 54 28 6 4 8 7 6 9 8 7 5 7 12 12 11 3 4 2 3 2 3 1 2 3 2 2 5 19 29 28 33 36 43 47 44 42 56 49 39 41 39 39 43 41 39
42 42 42 38 25 28 38 39 44 45 11 9 7 9 12 14 12 9 15 10 12 16 10 2 3 4 1 3 1 2 3 1 4 5 4 6 25 26 25 30 41 43 42 42 42 45 52 50 48 53 50 41 37 39
38 40 37 25 36 34 38 40 45 18 9 12 14 8 11 5 10 12 16 18 9 7 3 3 2 3 3 2 3 5 3 7 4 6 13 21 26 26 27 24 31 33 38 45 46 45 39 45 54 53 52 49 35 32
33 36 35 44 46 36 36 40 19 13 12 11 14 27 20 12 15 15 19 17 10 6 4 4 5 2 5 3 4 7 8 5 10 13 18 18 25 27 25 17 24 34 40 41 49 46 46 52 52 53 55 52 41 34
33 40 42 41 41 40 30 11 10 11 14 23 11 14 29 29 26 29 36 31 15 9 9 5 10 8 7 6 5 7 23 23 25 25 20 21 19 18 10 14 21 26 33 41 46 46 40 50 56 57 53 53 54 47
33 39 40 28 30 23 10 8 11 9 19 17 23 29 30 31 35 39 37 35 31 21 7 8 8 7 8 11 13 16 22 21 17 20 21 12 5 10 14 14 18 21 28 32 35 40 33 38 45 52 58 61 47 46
35 32 33 28 23 7 9 10 11 13 11 8 15 16 16 22 28 28 26 32 33 12 13 10 13 23 18 32 37 35 30 22 16 12 12 5 5 10 11 15 17 18 20 25 28 32 33 35 39 40 51 60 55 41
42 27 25 22 17 20 12 9 14 14 14 12 13 10 11 18 23 22 28 28 18 14 9 27 39 42 44 40 34 28 31 31 24 15 11 13 10 14 9 10 15 18 21 24 27 26 31 39 42 31 35 49 51 61
34 30 29 27 12 12 18 21 17 11 11 14 11 15 13 10 11 12 12 17 14 36 43 41 48 45 46 46 39 34 35 29 21 17 15 14 15 11 7 8 13 18 19 21 26 27 27 38 36 31 25 34 47 46
28 30 19 15 14 14 14 17 13 11 8 6 4 6 6 7 7 6 7 12 15 27 31 40 49 48 45 38 29 28 32 32 27 18 12 13 13 12 9 8 12 16 16 17 21 24 30 34 31 27 31 32 28 42
21 14 11 13 24 10 9 9 14 9 8 5 5 6 5 7 3 6 7 11 23 33 35 36 35 29 26 25 28 26 35 31 26 21 17 12 8 6 7 8 10 11 16 18 19 23 27 29 29 27 29 30 32 36
11 14 13 13 16 10 10 7 8 5 8 10 6 6 4 3 3 5 6 5 12 26 35 24 23 24 25 28 29 34 37 31 23 20 14 7 3 8 12 12 8 7 10 13 17 21 23 26 28 29 28 31 35 34
15 17 18 15 9 12 11 7 10 11 7 10 10 5 2 4 5 9 3 8 14 26 32 25 21 24 29 31 26 28 35 27 22 18 15 10 6 2 7 9 6 4 10 13 17 22 26 24 21 23 24 25 29 32
14 17 17 19 10 7 8 9 5 4 7 10 5 7 5 5 9 5 5 11 21 33 39 32 22 20 19 17 19 22 27 26 17 19 14 11 7 4 7 6 7 4 2 6 14 21 25 26 22 18 19 21 23 27
21 15 16 17 17 19 6 4 6 9 9 10 7 11 12 10 5 3 3 14 27 29 30 33 23 9 3 8 18 22 26 20 24 22 20 15 10 5 4 4 3 2 4 3 12 22 27 27 25 18 14 17 20 21
16 21 23 9 11 13 19 14 11 16 13 14 8 7 8 9 12 18 28 40 48 47 49 37 25 14 11 15 17 22 26 29 30 30 27 21 16 12 8 5 8 5 4 7 13 14 16 22 27 28 22 14 14 15
20 22 13 14 14 16 30 31 19 24 27 28 25 26 33 33 32 36 44 41 43 38 31 32 27 13 12 16 19 19 24 32 35 30 24 23 21 19 15 13 11 8 4 8 10 9 16 21 24 22 20 17 11 7
14 31 16 20 22 48 49 42 46 47 37 34 32 36 40 33 27 32 31 30 26 23 14 6 10 9 9 16 23 20 24 29 31 27 21 19 20 20 18 16 14 13 11 4 0 4 10 16 21 23 21 15 9 6
22 28 21 15 15 30 32 22 24 24 25 25 34 32 26 17 14 5 13 19 16 14 13 12 12 10 19 26 22 20 18 20 19 18 18 16 13 12 12 11 12 12 9 7 3 5 10 13 14 13 9 7 9 12
18 23 29 25 14 12 21 16 9 10 17 16 19 23 19 11 7 11 11 12 11 11 5 4 10 14 15 19 24 26 25 19 12 6 10 12 12 10 14 15 14 12 8 3 5 4 4 6 7 7 10 14 14 12
Wind_Direction_850mb
342 342 342 343 344 347 349 351 348 343 346 347 348 347 342 334 313 301 298 294 273 266 285 276 278 272 288 288 289 315 323 11 299 322 280 299 273 219 209 43 1 127 185 168 212 224 168 358 9 82 352 333 337 333
337 339 340 341 341 344 345 348 348 343 342 346 345 346 338 333 311 285 294 290 287 264 273 296 300 293 274 282 268 273 280 292 327 326 308 299 339 342 332 90 349 127 16 32 289 32 341 344 23 41 357 333 338 337
335 336 339 338 340 340 342 345 346 345 338 344 343 341 332 331 329 304 295 279 285 282 310 335 15 354 8 308 276 252 250 288 322 336 313 291 338 321 21 18 346 14 344 290 316 40 326 328 42 15 359 345 340 340
328 331 335 339 337 339 338 340 343 343 340 342 341 338 326 317 323 313 305 298 288 295 300 290 327 310 343 336 288 270 264 270 284 315 303 317 319 326 21 351 327 12 297 340 297 330 333 228 356 347 345 349 344 340
321 324 326 331 335 332 336 336 338 341 340 342 338 336 324 305 308 316 309 285 291 299 285 289 316 337 323 324 330 310 305 277 281 298 286 330 283 295 347 289 24 356 3 5 336 320 293 298 318 328 334 337 338 338
312 318 321 324 329 332 333 335 332 336 335 340 335 333 319 297 287 317 308 163 339 281 297 300 311 310 353 351 14 1 9 63 156 228 290 279 279 295 301 339 61 358 325 329 303 298 292 291 304 323 328 331 335 334
307 313 319 321 324 332 334 336 335 332 335 337 333 332 322 292 255 262 282 301 325 277 281 297 294 306 345 360 14 20 14 67 153 302 265 301 296 332 289 299 355 329 315 314 315 327 308 315 313 319 325 328 333 334
308 307 314 319 321 328 331 335 337 337 337 337 332 330 326 282 244 269 260 304 300 241 239 289 286 321 354 349 350 0 342 356 32 345 333 342 303 309 270 349 329 330 325 309 316 312 299 305 311 317 320 329 333 337
307 308 311 316 320 326 327 331 335 339 339 338 333 333 320 196 222 256 281 287 236 241 259 211 274 304 339 352 344 354 358 28 355 16 4 329 354 344 318 315 315 317 311 308 317 322 316 306 307 315 320 325 330 332
301 302 309 313 316 325 324 329 331 336 341 342 346 343 243 242 300 301 244 240 219 228 230 254 229 287 327 302 37 354 13 20 356 6 311 25 298 262 296 306 307 308 321 306 309 313 315 316 315 314 316 316 316 318
298 301 304 307 317 321 322 327 331 335 344 351 332 271 254 299 286 226 222 215 196 236 215 239 226 292 286 319 354 41 20 351 346 9 347 13 335 343 345 344 352 351 337 332 320 295 294 292 300 308 308 308 310 315
299 297 299 302 311 311 322 323 333 338 338 325 301 291 310 295 206 233 223 225 223 278 235 243 233 227 235 221 187 149 95 298 59 330 296 78 312 338 348 2 18 4 9 0 337 313 310 303 303 302 301 302 300 306
302 299 300 306 313 305 309 313 328 333 331 324 293 278 276 231 247 220 210 210 245 212 237 267 324 205 193 145 222 186 173 165 312 45 41 234 293 344 355 1 7 6 357 346 353 355 346 330 316 315 305 299 295 294
302 305 306 318 316 309 308 311 324 327 326 278 227 279 207 219 235 198 194 200 231 244 282 300 250 259 209 190 176 249 76 281 92 112 238 291 330 334 349 357 353 347 348 352 359 4 0 354 339 330 317 308 297 284
300 300 305 320 313 316 315 313 319 318 252 236 195 236 226 237 257 247 219 253 259 283 284 258 157 197 132 234 179 124 190 152 227 219 221 284 328 328 333 344 348 345 344 346 351 1 9 6 2 359 352 328 302 291
302 306 311 309 312 316 315 316 318 299 230 226 230 244 225 258 251 224 226 245 266 252 249 186 174 208 189 190 221 215 196 216 228 222 264 299 311 322 329 332 350 355 356 356 356 355 350 357 5 359 354 354 336 304
296 294 302 309 318 320 317 307 295 224 231 224 238 227 228 260 258 260 240 234 221 188 222 166 231 236 121 224 221 195 216 222 246 271 305 329 323 320 324 328 349 352 359 5 2 2 5 10 6 3 3 7 352 341
295 301 299 303 317 326 310 261 232 238 246 240 232 232 229 239 248 260 256 255 237 201 175 223 141 189 210 208 227 223 234 266 290 302 309 320 331 341 6 3 358 359 3 4 8 8 6 16 14 12 8 8 14 7
294 304 308 310 307 297 284 246 233 259 245 261 257 256 258 265 263 266 265 260 253 236 198 187 230 204 207 205 230 254 257 261 283 311 322 331 1 42 44 35 13 8 8 8 11 11 1 9 12 12 13 12 360 4
280 297 309 295 260 238 264 259 234 257 260 250 256 249 247 260 275 273 265 252 239 210 198 211 224 232 221 255 270 281 260 259 267 292 315 10 332 355 1 13 16 13 10 9 12 13 7 9 11 7 14 17 11 7
317 305 315 308 261 232 252 262 247 245 269 257 260 255 259 259 259 256 254 242 201 221 235 235 241 242 252 258 273 266 251 249 259 254 268 299 310 344 342 352 7 9 4 7 7 3 4 4 4 5 8 13 24 30
290 297 296 287 244 233 251 235 237 288 264 261 270 255 256 254 256 249 230 196 237 246 241 242 247 255 256 253 267 258 252 244 248 248 271 283 292 293 297 327 359 6 8 7 3 359 7 5 3 10 4 11 13 11
277 278 276 229 226 227 251 220 225 226 241 244 250 240 233 234 225 198 240 231 248 277 277 261 258 259 260 262 262 255 237 233 237 241 249 249 277 296 292 307 338 359 5 3 1 355 354 1 6 12 14 13 10 18
255 238 230 227 206 247 234 235 212 238 237 244 230 253 229 234 270 223 236 258 285 305 293 280 261 249 249 245 260 261 230 226 236 233 240 260 291 305 325 310 313 345 359 3 7 360 354 360 6 9 15 19 19 17
222 225 217 225 218 224 217 225 212 213 239 205 228 256 232 218 243 246 244 281 346 349 344 303 263 261 261 261 267 248 223 220 227 221 235 199 244 305 322 331 312 330 4 358 14 14 8 6 8 10 17 19 20 19
223 219 210 209 207 206 210 219 208 219 214 202 225 250 206 200 237 248 223 348 355 355 346 329 304 293 280 261 245 228 210 207 204 192 182 191 204 245 347 348 10 353 0 20 20 13 10 8 13 13 24 27 26 30
223 229 215 222 226 218 251 252 265 251 229 213 201 181 169 232 243 242 186 34 17 4 357 348 325 303 283 267 213 212 207 195 199 194 197 211 233 299 350 351 339 333 5 35 15 15 8 4 9 15 14 23 29 32
221 209 200 219 204 210 229 195 212 225 228 213 177 189 185 210 246 222 200 324 334 337 342 345 344 333 228 227 208 191 180 196 214 203 203 211 226 265 327 343 352 98 159 72 4 0 3 0 358 10 19 19 26 32
217 212 213 215 207 210 212 213 231 228 228 198 211 212 216 232 289 293 300 305 305 300 293 295 314 327 278 226 206 201 205 213 207 198 208 215 219 222 214 196 175 202 298 341 357 358 7 10 10 5 5 12 22 32
225 200 206 220 220 229 232 227 245 258 257 251 260 276 273 267 272 288 296 295 299 302 289 263 276 276 263 244 233 230 223 213 210 216 213 216 224 224 211 199 200 213 227 331 347 8 7 8 6 358 353 353 354 2
208 189 215 230 246 250 254 257 258 262 257 257 257 252 259 269 279 280 278 280 280 308 324 297 253 267 273 288 282 264 233 225 219 221 225 225 211 201 197 199 209 235 264 271 70 349 350 347 344 344 348 351 2 16
200 204 215 231 248 259 251 247 240 234 240 236 243 242 245 239 233 228 322 306 303 295 273 249 218 234 265 273 250 228 219 199 178 169 167 173 201 226 227 216 209 205 202 199 221 311 330 332 331 330 354 53 66 74
220 220 226 243 249 245 240 219 222 250 237 237 235 215 202 191 117 31 51 42 34 14 349 243 218 212 195 172 165 156 152 158 161 202 217 220 230 237 224 202 190 182 182 251 292 325 11 25 28 43 86 106 108 104